Regional Weather Roundup
Issued by NWS Charleston, WV

Home | Current Version | Previous Version | Graphics & Text | Print | Product List | Glossary On
Versions: 1 2 3 4 5 6 7 8 9 10 11 12 13 14 15 16 17 18 19 20 21 22 23 24 25 26 27 28 29 30 31 32 33 34 35 36 37 38 39 40 41 42 43 44 45 46 47 48 49 50
000
ASUS41 KRLX 040910
RWRRLX
West Virginia Regional Weather Roundup
National Weather Service Charleston WV
500 AM EDT SAT JUL 04 2015

Note: "fair" indicates few or no clouds below 12,000 feet with no
significant weather and/or obstructions to visibility.

WVZ003-041000-
Northern Panhandle of West Virginia

CITY           SKY/WX    TMP DP  RH WIND       PRES   REMARKS
WHEELING       CLOUDY    66  64  93 N6        29.87S FOG
$$

WVZ009-041000-
Northwest West Virginia

CITY           SKY/WX    TMP DP  RH WIND       PRES   REMARKS
PARKERSBURG    CLOUDY    65  64  97 NW6       29.91R FOG
$$

WVZ006-041000-
Western West Virginia

CITY           SKY/WX    TMP DP  RH WIND       PRES   REMARKS
HUNTINGTON     CLOUDY    66  66 100 N5        29.89R FOG
$$

WVZ015-041000-
West Central West Virginia

CITY           SKY/WX    TMP DP  RH WIND       PRES   REMARKS
CHARLESTON     LGT RAIN  69  66  90 SW8       29.89R
$$

WVZ022-031-041000-
North Central West Virginia

CITY           SKY/WX    TMP DP  RH WIND       PRES   REMARKS
CLARKSBURG     CLOUDY    67  66  97 S5        29.87R
MORGANTOWN     LGT RAIN  68  63  84 S6        29.87S
$$

WVZ025-035-042-045-041000-
Southern West Virginia

CITY           SKY/WX    TMP DP  RH WIND       PRES   REMARKS
BECKLEY        CLOUDY    65  62  90 SW5       29.97R
LOGAN          CLOUDY    66  66 100 CALM      29.89S
BLUEFIELD      CLOUDY    66  61  84 W8        29.99R
LEWISBURG      FOG       65  63  93 CALM      29.96R VSB 1
$$

WVZ047-041000-
Northern Mountains of West Virginia

CITY           SKY/WX    TMP DP  RH WIND       PRES   REMARKS
ELKINS         CLOUDY    63  61  93 CALM      29.92S FOG
$$

WVZ052-041000-
Eastern Panhandle of West Virginia

CITY           SKY/WX    TMP DP  RH WIND       PRES   REMARKS
MARTINSBURG    LGT RAIN  67  64  90 CALM      29.90S FOG
PETERSBURG     CLOUDY    64  61  91 CALM      29.90F FOG
$$


USA.gov is the U.S. government's official web portal to all federal, state and local government web resources and services.